User: anonymous   Login
Location: Smithers
(54.7670°N, 127.1670°W)
Time: 19:27:33
(UTC-07:00)
Language:

ERBS - Orbit

View from above orbital plane
View from above orbital plane
View from above satellite
View from above satellite

Ground track
Ground track

The orbit data is extracted from the following two-line orbital elements,

1 15354U 84108B   17146.56780028 +.00002135 +00000-0 +55590-4 0  9993
2 15354 057.0081 231.4598 0016230 072.3422 287.9404 15.43544990794597
Epoch (UTC): 26 May 2017 13:37:37
Eccentricity: 0.0016230
inclination: 57.0081°
perigee height: 424 km
apogee height: 447 km
right ascension of ascending node: 231.4598°
argument of perigee: 72.3422°
revolutions per day: 15.43544990
mean anomaly at epoch: 287.9404°
orbit number at epoch: 79459

The dashed part of the orbit path shows where the satellite is in the earth's shadow,  

DLR